Aérodrome :
LOGIN :

S'inscrire | Disclaimer

   EN    FR    IT 

 










Légende :    VFR   VFR Marginal   IFR   IFR Intensif   IFR Très Intensif
Visi : 
Plafond : 
>= 8 km
>= 3000ft
5 à 8 km
1000 à 3000 ft
1500m à 5 km
500 à 1000 ft
800 à 1500m
200 à 500 ft
< 800m
< 200 ft
Symboles :   Orages  Brouillard  Fortes neiges  Fortes précipitations  Vent > 20 kt
SIGMETs :   Divers  Orages  Givrage  Turbulence  Onde Orograph.  Cendres Volcan.







- Altitude de l'aérodrome : 1325 ft
- Code IATA : EBU
- Voir les cartes d'approche


LFMH - St-Etienne Boutheon

DERNIER METAR :
  • 141700Z AUTO 17006KT CAVOK 11/09 Q1024 NOSIG

METARs EXPIRÉS :
  • 141630Z AUTO 17007KT CAVOK 12/09 Q1024 NOSIG
  • 141600Z AUTO 16008KT CAVOK 14/10 Q1024 NOSIG
  • 141530Z AUTO 16008KT CAVOK 15/10 Q1024 NOSIG
  • 141500Z AUTO 16008KT CAVOK 15/10 Q1025 NOSIG
  • 141430Z AUTO 16010KT CAVOK 16/10 Q1025 NOSIG

TAF TAF LFMH
Valide du 14 à 15h jusqu'au 15 à 15h UTC


141400Z 1415/1515 16010KT CAVOK
PROB30
TEMPO 1501/1507 VRB02KT 4000 BR NSC
ATIS : +33 4 77 36 17 51
Pas de NOTAMs connus pour ce terrain.



MET'MAP, la Météo Aéronautique d'un coup d'oeil ! - Copyright ORBIFLY Décembre 2007 - Disclaimer

ORBIFLY MET'MAP TEAM :

Programmation & Développement : Alexandra Zaïnal
Conception & Développement : Baudouin d'Aumeries
Co-Programmation & Développement : Marc-Olivier Méhu
Soutien technique & logistique : Manuel Goepfert

Contact : metmap@orbifly.com




SOURCES & CREDITS :

   NOAA